| time (UTC) | temp F | wind direction | speed MPH | gust MPH | rain 1hr in | rain 24hr in | rain mn in | humidity % | barometer mb |
| 20260510170110 | 58 | 0 | 0.0 | 0.0 | 0.00 | 0.04 | 0.02 | 69 | 1011.4 |
| 20260510164611 | 57 | 0 | 0.0 | 2.0 | 0.00 | 0.10 | 0.02 | 73 | 1011.6 |
| 20260510163053 | 56 | 0 | 0.0 | 2.0 | 0.00 | 0.10 | 0.02 | 76 | 1011.8 |
| 20260510161603 | 55 | 0 | 1.0 | 9.0 | 0.00 | 0.10 | 0.02 | 73 | 1011.9 |
| 20260510160059 | 55 | 0 | 0.0 | 11.0 | 0.00 | 0.10 | 0.02 | 75 | 1011.8 |
| 20260510154553 | 55 | 0 | 1.0 | 8.0 | 0.00 | 0.12 | 0.02 | 75 | 1011.9 |
| 20260510153056 | 53 | 102 | 0.0 | 8.0 | 0.00 | 0.12 | 0.02 | 78 | 1011.8 |
| 20260510151602 | 54 | 0 | 0.0 | 9.0 | 0.01 | 0.12 | 0.02 | 80 | 1011.8 |
| 20260510150100 | 56 | 0 | 0.0 | 6.0 | 0.01 | 0.12 | 0.02 | 85 | 1011.2 |
| 20260510144555 | 55 | 0 | 0.0 | 2.0 | 0.02 | 0.12 | 0.02 | 87 | 1011.2 |
| 20260510143058 | 54 | 0 | 0.0 | 0.0 | 0.02 | 0.12 | 0.02 | 89 | 1011.0 |
| 20260510141604 | 54 | 0 | 0.0 | 6.0 | 0.01 | 0.11 | 0.01 | 88 | 1010.9 |
| 20260510140057 | 54 | 0 | 1.0 | 9.0 | 0.01 | 0.11 | 0.01 | 86 | 1010.7 |
| 20260510134604 | 55 | 0 | 4.0 | 13.0 | 0.00 | 0.10 | 0.00 | 82 | 1010.6 |
| 20260510133108 | 56 | 0 | 1.0 | 8.0 | 0.00 | 0.10 | 0.00 | 81 | 1010.2 |
| 20260510131601 | 57 | 238 | 0.0 | 6.0 | 0.00 | 0.10 | 0.00 | 82 | 1010.1 |
| 20260510130051 | 55 | 244 | 0.0 | 1.0 | 0.00 | 0.10 | 0.00 | 84 | 1010.1 |
| 20260510124552 | 54 | 0 | 0.0 | 4.0 | 0.00 | 0.10 | 0.00 | 85 | 1010.1 |
| 20260510123100 | 54 | 0 | 2.0 | 9.0 | 0.00 | 0.10 | 0.00 | 86 | 1010.1 |
| 20260510121550 | 54 | 0 | 2.0 | 11.0 | 0.00 | 0.10 | 0.00 | 87 | 1010.1 |
| 20260510120050 | 53 | 0 | 0.0 | 5.0 | 0.00 | 0.10 | 0.00 | 87 | 1009.9 |
| 20260510114550 | 53 | 0 | 0.0 | 5.0 | 0.00 | 0.10 | 0.00 | 87 | 1009.9 |
| 20260510113048 | 52 | 206 | 0.0 | 5.0 | 0.00 | 0.10 | 0.00 | 89 | 1010.0 |
| 20260510111547 | 52 | 0 | 0.0 | 0.0 | 0.00 | 0.10 | 0.00 | 90 | 1009.9 |
| 20260510110053 | 51 | 0 | 0.0 | 0.0 | 0.00 | 0.10 | 0.00 | 90 | 1009.4 |
| 20260510104554 | 52 | 0 | 0.0 | 0.0 | 0.00 | 0.10 | 0.00 | 90 | 1009.3 |
| 20260510103055 | 52 | 0 | 0.0 | 6.0 | 0.00 | 0.10 | 0.00 | 90 | 1009.0 |
| 20260510101552 | 50 | 0 | 0.0 | 6.0 | 0.00 | 0.10 | 0.00 | 93 | 1009.1 |
| 20260510100050 | 50 | 0 | 0.0 | 0.0 | 0.00 | 0.10 | 0.00 | 93 | 1008.6 |
| 20260510094552 | 50 | 0 | 0.0 | 2.0 | 0.00 | 0.10 | 0.00 | 94 | 1008.7 |
| 20260510093050 | 50 | 0 | 0.0 | 0.0 | 0.00 | 0.10 | 0.00 | 93 | 1008.6 |
| 20260510091558 | 50 | 0 | 0.0 | 0.0 | 0.00 | 0.10 | 0.00 | 92 | 1008.5 |
| 20260510090059 | 50 | 0 | 0.0 | 0.0 | 0.00 | 0.10 | 0.00 | 93 | 1008.3 |
| 20260510084555 | 50 | 0 | 0.0 | 0.0 | 0.00 | 0.10 | 0.00 | 92 | 1008.0 |
| 20260510083056 | 51 | 0 | 0.0 | 0.0 | 0.00 | 0.10 | 0.00 | 92 | 1007.8 |
| 20260510081555 | 51 | 0 | 0.0 | 0.0 | 0.00 | 0.10 | 0.00 | 92 | 1007.9 |
| 20260510080051 | 51 | 0 | 0.0 | 0.0 | 0.00 | 0.10 | 0.00 | 91 | 1007.8 |
| 20260510074554 | 52 | 0 | 0.0 | 0.0 | 0.00 | 0.10 | 0.00 | 88 | 1007.4 |
| 20260510073109 | 53 | 0 | 0.0 | 6.0 | 0.00 | 0.10 | 0.00 | 89 | 1008.1 |
| 20260510071601 | 53 | 0 | 0.0 | 9.0 | 0.00 | 0.10 | 0.00 | 89 | 1007.9 |
| 20260510070051 | 53 | 0 | 0.0 | 13.0 | 0.00 | 0.10 | 0.00 | 89 | 1008.4 |
| 20260510064556 | 53 | 263 | 0.0 | 10.0 | 0.00 | 0.10 | 0.00 | 89 | 1008.5 |
| 20260510063059 | 53 | 268 | 1.0 | 13.0 | 0.00 | 0.10 | 0.00 | 89 | 1008.5 |
| 20260510061551 | 53 | 212 | 3.0 | 9.0 | 0.00 | 0.10 | 0.00 | 88 | 1008.7 |
| 20260510060055 | 53 | 0 | 0.0 | 6.0 | 0.00 | 0.10 | 0.00 | 88 | 1008.5 |
| 20260510054554 | 52 | 0 | 0.0 | 4.0 | 0.00 | 0.10 | 0.00 | 89 | 1008.1 |
| 20260510053054 | 52 | 0 | 0.0 | 0.0 | 0.00 | 0.10 | 0.00 | 89 | 1008.2 |
| 20260510051556 | 53 | 0 | 0.0 | 1.0 | 0.00 | 0.10 | 0.00 | 87 | 1008.1 |
| 20260510050050 | 53 | 0 | 0.0 | 11.0 | 0.00 | 0.10 | 0.00 | 87 | 1008.3 |
| 20260510044552 | 54 | 0 | 0.0 | 14.0 | 0.00 | 0.10 | 0.00 | 87 | 1008.5 |
| 20260510043105 | 53 | 0 | 0.0 | 1.0 | 0.00 | 0.10 | 0.00 | 88 | 1008.5 |
| 20260510041555 | 53 | 257 | 0.0 | 14.0 | 0.00 | 0.10 | 0.00 | 88 | 1008.2 |
| 20260510040055 | 53 | 0 | 0.0 | 11.0 | 0.00 | 0.10 | 0.00 | 89 | 1008.2 |
| 20260510034550 | 52 | 0 | 0.0 | 6.0 | 0.00 | 0.10 | 0.10 | 93 | 1008.2 |
| 20260510033054 | 51 | 0 | 0.0 | 6.0 | 0.00 | 0.10 | 0.10 | 95 | 1008.0 |
| 20260510031555 | 49 | 0 | 0.0 | 3.0 | 0.00 | 0.10 | 0.10 | 97 | 1008.5 |
| 20260510030049 | 47 | 0 | 0.0 | 0.0 | 0.00 | 0.10 | 0.10 | 96 | 1008.4 |
| 20260510024549 | 47 | 0 | 0.0 | 0.0 | 0.00 | 0.10 | 0.10 | 96 | 1008.4 |
| 20260510023049 | 47 | 0 | 0.0 | 0.0 | 0.00 | 0.10 | 0.10 | 96 | 1008.5 |
| 20260510021550 | 47 | 0 | 0.0 | 0.0 | 0.00 | 0.10 | 0.10 | 96 | 1008.5 |
| 20260510020052 | 47 | 0 | 0.0 | 0.0 | 0.00 | 0.10 | 0.10 | 95 | 1008.7 |
| 20260510014605 | 47 | 0 | 0.0 | 0.0 | 0.00 | 0.10 | 0.10 | 95 | 1008.7 |
| 20260510013053 | 47 | 0 | 0.0 | 0.0 | 0.00 | 0.10 | 0.10 | 95 | 1008.8 |
| 20260510011555 | 47 | 0 | 0.0 | 0.0 | 0.00 | 0.10 | 0.10 | 95 | 1008.8 |
| 20260510010052 | 47 | 0 | 0.0 | 0.0 | 0.00 | 0.10 | 0.10 | 95 | 1008.7 |
| 20260510004553 | 47 | 0 | 0.0 | 0.0 | 0.00 | 0.10 | 0.10 | 95 | 1008.9 |
| 20260510003049 | 47 | 0 | 0.0 | 0.0 | 0.00 | 0.10 | 0.10 | 95 | 1008.8 |
| 20260510001555 | 47 | 0 | 0.0 | 0.0 | 0.00 | 0.10 | 0.10 | 95 | 1008.7 |
| 20260510000055 | 47 | 0 | 0.0 | 0.0 | 0.00 | 0.10 | 0.10 | 95 | 1008.5 |
| 20260509234551 | 47 | 0 | 0.0 | 0.0 | 0.00 | 0.10 | 0.10 | 95 | 1008.4 |
| 20260509233053 | 47 | 0 | 0.0 | 0.0 | 0.00 | 0.10 | 0.10 | 95 | 1008.4 |
| 20260509231550 | 47 | 0 | 0.0 | 0.0 | 0.00 | 0.10 | 0.10 | 95 | 1008.2 |
| 20260509230053 | 47 | 0 | 0.0 | 0.0 | 0.00 | 0.10 | 0.10 | 95 | 1008.2 |
| 20260509224556 | 47 | 0 | 0.0 | 0.0 | 0.00 | 0.10 | 0.10 | 95 | 1008.3 |
| 20260509223059 | 47 | 0 | 0.0 | 0.0 | 0.00 | 0.10 | 0.10 | 95 | 1008.4 |
| 20260509221603 | 47 | 0 | 0.0 | 0.0 | 0.00 | 0.10 | 0.10 | 95 | 1008.5 |
| 20260509220052 | 47 | 0 | 0.0 | 0.0 | 0.00 | 0.10 | 0.10 | 94 | 1008.6 |
| 20260509214558 | 47 | 0 | 0.0 | 0.0 | 0.00 | 0.10 | 0.10 | 95 | 1008.7 |
| 20260509213054 | 47 | 0 | 0.0 | 0.0 | 0.00 | 0.10 | 0.10 | 95 | 1009.0 |
| 20260509211558 | 46 | 0 | 0.0 | 0.0 | 0.01 | 0.10 | 0.10 | 94 | 1009.0 |
| 20260509210107 | 46 | 0 | 0.0 | 0.0 | 0.01 | 0.10 | 0.10 | 94 | 1009.1 |
| 20260509204557 | 46 | 0 | 0.0 | 0.0 | 0.01 | 0.10 | 0.10 | 94 | 1009.1 |
| 20260509203053 | 46 | 0 | 0.0 | 0.0 | 0.01 | 0.10 | 0.10 | 94 | 1009.4 |
| 20260509201558 | 46 | 0 | 0.0 | 0.0 | 0.00 | 0.09 | 0.09 | 93 | 1009.4 |
| 20260509194548 | 46 | 0 | 0.0 | 0.0 | 0.00 | 0.09 | 0.09 | 93 | 1009.7 |
| 20260509193051 | 46 | 0 | 0.0 | 0.0 | 0.00 | 0.09 | 0.09 | 93 | 1009.8 |
| 20260509191601 | 46 | 0 | 0.0 | 0.0 | 0.00 | 0.09 | 0.09 | 93 | 1009.9 |
| 20260509190107 | 45 | 0 | 0.0 | 0.0 | 0.00 | 0.09 | 0.09 | 93 | 1010.0 |
| 20260509184556 | 45 | 0 | 0.0 | 0.0 | 0.00 | 0.09 | 0.09 | 93 | 1010.1 |
| 20260509183055 | 46 | 0 | 0.0 | 0.0 | 0.00 | 0.09 | 0.09 | 93 | 1010.0 |
| 20260509181551 | 46 | 0 | 0.0 | 0.0 | 0.01 | 0.09 | 0.09 | 93 | 1010.0 |
| 20260509180059 | 46 | 0 | 0.0 | 0.0 | 0.01 | 0.09 | 0.09 | 93 | 1010.3 |
| 20260509174553 | 45 | 0 | 0.0 | 0.0 | 0.02 | 0.09 | 0.09 | 93 | 1010.5 |
| 20260509173050 | 45 | 0 | 0.0 | 0.0 | 0.04 | 0.09 | 0.09 | 92 | 1010.5 |
| 20260509171556 | 45 | 0 | 0.0 | 0.0 | 0.05 | 0.08 | 0.08 | 92 | 1010.8 |